Location: Artiguedieu
(43.5000°N, 0.5454°E)
Time: 16:47:16
(UTC+00:00)

Transit 2A Rocket - Pass Details

Date: 02 August 2021
Orbit: 586 x 916 km, 66.7° (Epoch: 21 September)

Event Time Altitude Azimuth Distance (km) Brightness Sun altitude
Rises 21:46:14 0° 332° (NNW) 3,260 9.8 -21.3°
Reaches altitude 10° 21:48:39 10° 338° (NNW) 2,380 8.6 -21.5°
Maximum altitude 21:53:59 48° 53° (NE) 1,097 5.7 -22.1°
Enters shadow 21:55:51 36° 100° (E) 1,338 5.9 -22.3°
Drops below altitude 10° 21:59:42 10° 127° (SE) 2,547 - -22.7°
Sets 22:02:22 0° 133° (SE) 3,511 - -22.9°
